CAPE
0 0 0 0 0 0 0 0 0 0 0 0 0 0 60 52 63 5 104 216 66 63 130 460 865 860 672 515 490 405 484 378 149 21 0 0 175 199 336 279 436 385 363 176 45 27 7 2 1
0 0 0 0 0 0 0 0 0 0 7 16 18 14 35 113 3 159 330 266 77 84 315 443 772 700 691 537 502 461 418 466 131 23 0 0 74 193 310 308 377 429 293 82 37 32 19 5 0
0 0 0 0 0 0 0 0 0 0 14 20 121 63 120 158 55 139 360 299 83 169 335 445 633 753 715 578 528 503 412 381 65 1 0 0 4 107 326 324 433 376 217 68 32 22 17 3 0
0 0 0 0 0 0 0 0 0 0 0 10 16 171 132 125 174 442 509 308 33 30 354 465 683 778 700 662 521 373 377 243 15 0 0 0 2 22 249 301 305 377 403 70 29 21 4 0 0
0 0 0 0 0 0 0 0 0 0 0 0 3 177 334 249 463 590 490 313 146 238 499 605 659 710 743 612 433 334 252 290 143 94 13 8 0 0 209 298 254 410 219 49 20 5 0 0 0
0 0 0 0 0 0 0 0 0 0 0 10 10 138 324 219 761 660 502 375 561 494 610 582 626 580 480 481 391 297 313 269 195 225 95 70 41 54 167 258 256 202 66 40 17 2 0 0 0
0 0 0 0 0 0 0 0 0 0 0 155 35 125 329 396 786 698 528 454 551 612 576 539 384 370 423 273 100 142 148 126 281 289 131 155 218 271 340 330 243 281 93 15 12 7 3 0 0
0 0 0 0 0 0 0 0 0 0 0 0 91 65 186 391 646 598 514 385 415 534 303 91 0 0 0 0 0 0 11 42 51 11 28 38 49 40 19 37 135 185 145 60 19 21 28 6 0
0 0 0 0 0 0 0 0 0 0 0 2 0 4 3 351 693 430 401 284 316 287 149 5 0 0 0 0 0 1 0 0 0 0 0 30 36 13 0 13 58 115 100 124 47 33 21 18 2
0 0 0 0 0 0 0 0 0 0 0 0 0 0 0 0 2 282 200 371 370 273 124 2 0 0 0 0 0 0 0 0 0 0 0 19 40 32 0 0 15 48 41 76 82 10 0 0 0
0 0 0 0 0 0 0 0 0 0 0 0 1 1 0 0 3 4 5 27 7 127 43 24 0 0 0 0 0 0 0 0 0 0 0 6 1 4 0 0 0 0 2 30 14 1 0 0 0
0 0 0 0 0 0 0 0 0 0 0 0 0 0 0 1 3 9 10 14 7 6 3 0 0 0 0 0 0 0 0 0 0 0 0 3 14 4 0 0 0 0 0 0 1 0 0 0 0
0 0 0 0 0 0 0 0 0 0 0 0 0 0 0 1 3 3 7 15 9 10 4 6 0 1 0 0 12 34 1 2 11 0 0 0 11 6 10 5 0 4 2 6 4 2 0 1 9
0 0 0 0 0 0 0 0 0 0 0 0 0 0 0 0 1 5 5 9 8 7 5 6 2 0 17 0 7 35 13 9 14 0 0 0 0 0 1 1 1 2 10 8 4 2 1 13 7
0 0 0 0 0 0 0 0 0 0 0 0 0 0 0 0 0 1 7 11 9 8 2 5 4 1 6 0 0 11 29 4 3 0 3 0 0 0 0 0 0 0 0 9 21 14 8 2 2
0 0 0 0 0 0 0 0 0 0 0 0 0 0 0 0 0 0 0 6 1 3 1 1 3 4 3 6 0 0 17 0 4 1 0 0 0 0 0 0 0 0 0 0 0 0 0 0 1
0 0 0 0 0 0 0 0 0 0 0 0 0 0 0 0 0 0 0 0 0 0 1 0 2 3 3 3 0 11 93 12 3 0 1 0 0 0 0 0 0 0 0 0 0 0 0 0 0
0 0 0 0 0 0 0 0 0 0 0 0 0 0 0 0 0 0 0 0 0 0 0 0 0 0 0 4 0 15 0 4 39 1 1 0 0 0 0 0 0 0 0 0 0 0 0 0 0
0 0 0 0 0 0 0 0 0 0 0 0 0 0 0 0 0 0 0 0 0 0 0 0 0 0 0 0 2 1 2 3 18 0 0 0 0 0 0 0 0 0 0 0 0 0 0 0 0
0 0 0 0 0 0 0 0 0 0 0 0 0 0 0 0 0 0 0 0 0 0 0 0 0 0 0 0 0 2 2 1 9 26 2 2 0 0 0 0 0 0 0 0 0 0 0 0 0
0 0 0 0 0 0 0 0 0 0 0 0 0 0 0 0 0 0 0 0 0 0 0 0 0 0 0 0 0 0 0 1 3 61 12 4 6 0 0 0 0 0 0 0 0 0 0 0 0
0 0 0 0 0 0 0 0 0 0 0 0 0 0 0 0 0 0 0 0 0 0 0 0 0 0 0 0 0 0 0 0 0 1 1 13 1 1 0 1 0 0 0 0 0 0 0 0 0
0 0 0 0 0 0 0 0 0 0 0 0 0 0 0 0 0 0 0 0 0 0 0 0 0 0 0 0 0 0 0 0 0 0 0 2 1 0 3 0 0 0 0 0 0 0 0 0 0
0 0 0 0 0 0 0 0 0 0 0 0 0 0 0 0 0 0 0 0 0 0 0 0 0 0 0 0 0 0 0 0 0 0 0 0 2 1 0 0 2 0 1 0 0 0 0 0 0
0 0 0 0 0 0 0 0 0 0 0 0 0 0 0 0 0 0 0 0 0 0 0 0 0 0 0 0 0 0 0 0 0 0 0 0 0 1 6 2 4 2 1 0 0 0 0 0 0
0 0 0 0 0 0 0 0 0 0 0 0 0 0 0 0 0 0 0 0 0 0 0 0 0 0 0 0 0 0 0 0 0 0 0 0 0 0 0 2 2 1 0 0 0 0 0 0 0
0 0 0 0 0 0 0 0 0 0 0 0 0 0 0 0 0 0 0 0 0 0 0 0 0 0 0 0 0 0 0 0 2 0 0 0 0 0 0 0 6 1 4 2 1 1 1 1 0
0 0 0 0 0 0 0 0 0 0 0 0 0 0 0 0 0 0 0 0 0 0 0 0 0 0 0 0 0 1 1 1 1 4 3 4 1 0 0 0 1 2 3 5 1 1 0 1 1
0 0 0 0 0 0 0 0 0 0 0 0 0 0 0 0 0 0 0 0 0 0 0 0 0 0 0 0 1 1 1 1 2 1 1 0 0 0 0 0 1 0 0 0 1 2 2 1 1
0 0 0 0 0 0 0 0 0 0 0 0 0 0 0 0 0 0 0 0 0 0 0 0 0 0 0 0 1 1 1 1 1 1 1 0 0 0 0 0 0 0 0 0 1 0 1 0 0
CIN
0 0 0 0 0 0 0 0 0 0 -6 0 0 -8 -183 -230 -172 -67 -260 -193 -224 -195 -102 -1 -1 0 0 -10 0 0 0 0 0 -2 0 0 0 0 -7 -6 -3 -3 0 -13 -14 -22 -54 0 0
0 0 0 0 0 0 0 0 0 0 -51 -78 -85 -76 -147 -204 -279 -237 -175 -190 -246 -198 -35 -5 -1 0 0 -3 0 0 0 0 0 -1 0 0 -3 0 -2 -8 -4 -8 0 -59 -14 -29 -50 -42 0
0 0 0 0 0 0 0 0 0 0 -48 -117 -51 -156 -164 -179 -242 -229 -201 -187 -245 -149 -28 -11 -3 0 0 0 -1 0 0 0 -22 0 0 0 -44 -3 0 -3 -2 0 -5 -63 -15 -30 -55 -83 0
0 0 0 0 0 0 0 0 0 0 0 -51 -98 -133 -207 -239 -179 -149 -106 -206 -271 -255 -40 -7 -1 0 0 0 0 -1 0 -1 0 0 0 0 0 -36 0 -1 -3 0 0 -99 -20 -38 -62 0 0
0 0 0 0 0 0 0 0 0 0 0 0 -39 -99 -134 -146 -132 -95 -101 -134 -238 -128 -25 -5 -1 -1 0 0 -1 -1 -2 0 -18 -28 -1 0 0 0 0 0 -3 -1 -1 -19 -28 0 0 0 0
0 0 0 0 0 0 0 0 0 0 0 -57 -39 -115 -139 -160 -64 -63 -83 -118 -105 -81 -15 -5 -3 -1 -2 -1 -2 -1 -1 -1 -12 -8 -32 -16 -1 -4 0 0 -3 -13 -80 -15 -25 0 0 0 0
0 0 0 0 0 0 0 0 0 0 0 -71 -119 -68 -121 -109 -45 -54 -71 -108 -76 -69 -32 -8 -23 -12 -5 -9 -40 -18 -10 -19 -2 -7 -47 -32 -9 -1 -1 -2 -2 -3 -73 -24 -25 -55 -38 0 0
0 0 0 0 0 0 0 0 0 0 0 0 -178 -80 -45 -62 -55 -51 -47 -82 -66 -53 -71 -115 0 0 0 0 0 0 -35 -57 -43 -16 -20 -19 -11 -9 -7 -99 -15 -23 -43 -4 -17 -27 -62 -99 0
0 0 0 0 0 0 0 0 0 0 0 -63 0 0 0 -55 -33 -19 -9 -39 -40 -47 -110 -219 0 0 0 0 0 -12 0 0 0 0 0 -32 -34 -45 0 -13 -84 -75 -127 -110 -2 -17 -60 -104 -43
0 0 0 0 0 0 0 0 0 0 0 0 0 0 0 0 -6 -11 -3 -6 -16 -22 -93 -226 0 0 0 0 0 0 0 0 0 0 0 -46 -43 -50 -1 0 -11 -6 -8 -3 0 -18 0 0 0
0 0 0 0 0 0 0 0 0 0 0 0 0 0 0 0 0 0 0 -9 -20 -26 -66 -77 0 0 0 0 0 0 0 0 0 0 0 -47 -19 -121 -1 0 0 0 -2 -5 -14 -7 0 0 0
0 0 0 0 0 0 0 0 0 0 0 0 0 0 0 0 0 0 0 0 0 0 0 0 -6 0 0 0 0 -4 0 0 0 0 0 -55 -52 -73 -1 0 0 0 -1 -6 -50 0 -2 0 -5
0 0 0 0 0 0 0 0 0 0 0 0 0 0 0 0 0 0 0 0 0 0 0 0 0 -38 0 0 -103 -52 -13 -15 -41 0 0 -8 -56 -58 -67 -68 0 -73 -25 -51 -58 -69 -34 -23 -42
0 0 0 0 0 0 0 0 0 0 0 0 0 0 0 0 0 0 0 0 0 0 0 0 0 0 -29 -38 -86 -64 -81 -47 -38 0 0 0 0 0 -66 -69 -55 -47 -70 -75 -81 -73 -44 -28 -32
0 0 0 0 0 0 0 0 0 0 0 0 0 0 0 0 0 0 0 0 0 0 0 0 0 0 -1 -4 -5 -94 -66 -64 -58 0 -47 0 0 0 0 -5 -3 -22 -1 -50 -47 -50 -46 -59 -45
0 0 0 0 0 0 0 0 0 0 0 0 0 0 0 0 0 0 0 0 0 0 0 0 0 0 0 0 0 0 -62 -94 -56 -59 0 0 0 0 0 0 0 0 0 0 0 0 0 0 -21
0 0 0 0 0 0 0 0 0 0 0 0 0 0 0 0 0 0 0 0 0 0 0 0 0 0 0 0 0 0 0 -60 -67 0 -66 0 0 0 0 0 0 0 0 0 0 0 0 0 0
0 0 0 0 0 0 0 0 0 0 0 0 0 0 0 0 0 0 0 0 0 0 0 0 0 0 0 0 0 -3 0 -8 -17 -68 -64 -42 0 0 0 0 0 0 0 0 0 0 0 0 0
0 0 0 0 0 0 0 0 0 0 0 0 0 0 0 0 0 0 0 0 0 0 0 0 0 0 0 0 0 -1 -1 0 -10 0 -3 0 0 0 0 0 0 0 0 0 0 0 0 0 0
0 0 0 0 0 0 0 0 0 0 0 0 0 0 0 0 0 0 0 0 0 0 0 0 0 0 0 0 0 0 0 0 -25 -19 -42 -30 0 -23 0 0 0 0 0 0 0 0 0 0 0
0 0 0 0 0 0 0 0 0 0 0 0 0 0 0 0 0 0 0 0 0 0 0 0 0 0 0 0 0 0 0 0 -2 -6 -32 -68 -74 -22 0 0 0 0 0 0 0 0 0 0 0
0 0 0 0 0 0 0 0 0 0 0 0 0 0 0 0 0 0 0 0 0 0 0 0 0 0 0 0 0 0 0 0 0 0 0 -42 -76 -57 0 -22 0 0 0 0 0 0 0 0 0
0 0 0 0 0 0 0 0 0 0 0 0 0 0 0 0 0 0 0 0 0 0 0 0 0 0 0 0 0 0 0 0 0 0 0 0 -18 0 -110 -2 0 0 0 0 0 0 0 0 0
0 0 0 0 0 0 0 0 0 0 0 0 0 0 0 0 0 0 0 0 0 0 0 0 0 0 0 0 0 0 0 0 0 0 0 0 0 -4 -1 0 -31 0 0 0 0 0 0 0 0
0 0 0 0 0 0 0 0 0 0 0 0 0 0 0 0 0 0 0 0 0 0 0 0 0 0 0 0 0 0 0 0 0 0 0 0 0 0 -14 -23 -25 -21 -2 0 0 0 0 0 0
0 0 0 0 0 0 0 0 0 0 0 0 0 0 0 0 0 0 0 0 0 0 0 0 0 0 0 0 0 0 -1 0 0 0 0 0 0 0 0 -2 -18 -12 -3 0 0 0 0 0 0
0 0 0 0 0 0 0 0 0 0 0 0 0 0 0 0 0 0 0 0 0 0 0 0 0 0 0 0 0 0 0 0 -1 -1 0 0 0 0 0 0 -31 0 -58 -38 0 0 0 0 0
0 0 0 0 0 0 0 0 0 0 0 0 0 0 0 0 0 0 0 0 0 0 0 0 0 0 0 0 0 0 0 0 0 -2 -1 -2 0 0 0 0 -8 -24 -80 -72 0 0 0 0 0
0 0 0 0 0 0 0 0 0 0 0 0 0 0 0 0 0 0 0 0 0 0 0 0 0 0 0 0 0 0 0 0 0 0 0 0 0 0 0 0 0 0 0 0 0 0 0 0 0
0 0 0 0 0 0 0 0 0 0 0 0 0 0 0 0 0 0 0 0 0 0 0 0 0 0 0 0 0 0 0 0 0 0 0 0 0 0 0 0 0 0 0 0 0 0 0 0 0
Wind_Speed
10 10 3 5 5 5 3 9 8 9 4 2 2 5 8 2 5 2 6 14 17 14 12 12 16 18 18 19 17 15 14 15 16 16 14 13 11 11 9 6 12 15 22 23 22 21 21 20 20
4 6 3 2 6 3 6 6 11 5 3 4 6 5 4 3 4 7 6 16 16 14 11 11 14 19 18 18 17 16 15 16 16 14 13 14 13 10 9 9 15 21 23 23 22 21 20 20 18
5 3 4 5 4 5 5 5 4 7 6 5 3 7 5 3 1 2 15 17 14 13 9 10 16 18 19 18 16 15 15 15 15 13 12 13 14 11 10 11 18 21 22 22 22 20 19 19 16
2 4 5 5 4 6 4 6 5 7 10 8 4 7 5 7 2 7 14 19 15 11 11 12 17 18 17 16 16 16 15 13 13 13 11 12 13 12 11 11 18 19 20 21 21 19 18 17 14
3 3 3 1 4 3 4 5 7 6 4 7 4 2 4 4 8 12 13 14 16 12 12 12 15 17 17 16 16 16 15 13 11 11 12 11 12 13 12 12 18 20 18 20 20 19 17 15 12
4 3 4 1 5 5 5 8 5 8 7 7 7 5 0 5 8 6 7 8 13 14 12 12 12 13 15 17 16 15 14 13 12 10 10 11 11 12 12 13 17 20 19 20 18 18 17 15 11
3 4 4 3 2 7 7 9 6 5 8 9 8 4 2 6 5 9 7 9 8 13 12 10 10 12 11 12 13 14 14 12 11 9 8 11 10 13 11 11 17 20 18 19 18 17 16 14 10
4 3 3 7 3 3 9 5 5 12 5 2 16 8 6 6 2 7 8 7 8 9 10 9 7 8 7 7 12 13 12 12 12 11 10 9 10 12 11 9 12 18 17 17 17 14 14 15 10
5 5 4 5 7 5 8 9 7 3 9 7 11 11 16 11 1 5 7 5 4 5 9 9 7 7 7 6 7 10 13 13 11 9 11 8 5 7 7 8 11 15 17 17 15 14 13 10 9
6 5 6 4 3 3 8 8 5 8 11 9 17 19 20 19 17 3 3 5 5 3 5 8 7 6 6 6 6 5 6 5 5 5 6 5 6 6 6 9 10 11 13 16 15 12 11 6 3
5 3 5 7 6 7 5 10 6 4 8 8 10 15 17 18 18 15 17 14 12 2 3 8 8 7 7 6 4 3 3 3 4 6 5 6 6 6 4 4 3 4 8 5 7 7 3 4 3
7 5 5 6 6 5 7 2 9 7 4 3 9 10 14 17 15 15 12 14 15 12 14 6 2 9 6 5 5 4 3 3 4 5 6 6 5 5 5 4 5 5 4 6 5 4 4 4 3
6 4 4 6 5 4 7 8 7 6 5 7 10 13 15 14 14 12 12 13 15 15 14 12 10 6 4 7 5 6 4 4 4 5 7 6 6 5 4 3 4 6 5 5 5 5 5 4 4
3 4 4 7 7 4 6 5 4 5 4 8 8 9 11 13 13 11 13 14 13 12 12 14 12 13 6 5 5 6 5 5 4 4 6 6 7 5 4 4 4 5 6 4 5 5 5 5 4
2 4 1 7 9 3 3 7 6 8 5 8 8 7 9 10 11 12 12 10 11 11 12 13 13 15 13 8 8 2 5 6 6 4 6 7 6 6 6 4 4 4 4 4 4 4 4 4 3
2 3 4 4 8 6 3 1 6 9 8 7 7 7 7 10 11 10 9 8 9 6 15 14 14 16 13 7 7 8 6 6 6 6 5 7 6 7 5 4 4 4 4 4 3 3 3 2 3
8 3 6 1 5 5 6 3 4 9 8 8 7 7 6 6 8 7 7 8 9 12 11 12 14 12 12 10 3 7 5 1 6 7 6 7 7 7 5 5 4 5 4 3 3 1 3 3 1
5 4 6 4 7 7 5 4 3 8 8 6 7 8 7 6 7 6 7 4 6 6 8 8 10 12 9 8 4 4 7 6 2 4 5 7 6 7 6 4 5 5 5 4 2 3 2 2 3
2 4 6 6 4 5 1 4 5 5 6 7 7 7 7 7 5 6 8 7 8 8 8 9 10 7 7 6 5 4 3 4 3 0 5 4 5 6 7 5 5 4 5 6 5 3 5 3 2
1 4 5 8 5 4 4 2 4 5 3 4 5 6 7 6 6 6 7 7 8 8 10 10 8 7 5 4 2 1 3 4 3 1 4 5 6 7 7 7 7 6 4 5 6 5 3 2 4
5 3 4 5 8 3 3 4 4 3 5 5 5 5 5 5 6 6 7 7 6 9 9 10 10 10 7 7 4 4 3 4 3 2 3 5 7 8 9 8 7 6 6 6 6 7 8 5 4
1 2 4 7 6 2 3 4 4 4 5 4 4 5 4 6 5 5 6 6 7 6 6 8 9 9 9 10 7 7 4 4 5 5 7 5 8 8 7 8 7 6 4 6 6 5 6 4 5
4 6 5 3 4 3 5 5 5 5 3 2 3 4 3 4 5 6 5 5 5 5 5 5 6 6 8 9 8 6 5 4 5 5 8 9 7 9 9 8 7 7 6 6 6 5 5 4 3
8 3 2 1 1 4 4 4 4 4 3 2 2 3 2 4 5 5 4 5 4 4 5 6 7 6 6 6 7 8 7 8 5 5 5 5 5 6 9 8 8 8 8 9 8 8 9 10 9
8 6 4 8 7 4 3 3 8 3 2 2 1 1 2 4 5 5 6 5 6 7 6 7 7 8 8 8 7 6 6 7 8 6 4 6 5 3 4 9 8 8 9 9 9 10 10 10 9
4 3 5 4 3 6 6 4 4 2 4 4 4 2 4 4 4 6 7 5 4 5 6 6 7 7 7 8 9 8 7 3 4 6 6 5 5 4 6 6 8 10 9 9 8 6 7 6 7
6 6 3 4 2 1 4 4 2 1 5 6 5 4 4 5 5 5 6 7 5 4 6 9 9 10 10 9 8 7 8 7 6 7 5 5 6 5 6 7 8 7 6 6 6 6 7 8 8
3 2 4 4 4 4 6 6 5 4 0 3 2 2 2 3 5 5 6 6 6 5 5 5 7 9 9 9 8 7 7 7 7 6 7 6 7 6 5 7 5 4 5 4 6 5 4 5 3
3 3 1 3 3 4 2 7 6 5 3 2 2 2 1 1 2 3 4 5 6 6 7 6 6 6 7 9 9 9 8 8 7 6 7 7 6 7 7 6 7 7 6 6 4 6 6 8 8
2 2 3 5 5 1 3 10 2 5 4 2 5 4 3 0 2 3 4 5 6 6 6 6 7 7 7 6 6 7 8 8 7 7 7 6 6 7 7 7 10 9 8 9 9 8 8 9 9
Wind_Direction
319 304 329 18 73 66 234 258 240 309 30 10 37 58 119 3 80 195 127 124 129 138 145 149 150 146 144 140 139 141 142 136 126 121 115 106 92 88 83 94 152 125 123 118 113 112 110 109 110
322 309 40 68 83 87 261 248 273 290 170 73 37 75 43 50 72 120 96 132 132 137 145 144 145 143 142 141 142 143 143 134 129 125 119 113 98 81 74 87 134 126 122 118 116 114 115 114 114
294 184 85 120 146 177 230 326 7 348 43 49 51 61 66 12 45 109 133 130 129 135 132 135 132 142 143 142 144 145 142 134 130 127 124 121 110 91 79 96 129 126 121 119 118 117 117 115 118
297 20 12 93 249 262 326 306 356 9 358 3 42 62 57 336 156 126 141 127 131 137 125 130 133 139 141 141 144 143 137 131 131 128 127 125 117 107 95 114 128 124 118 119 118 118 117 117 119
29 69 58 71 259 290 18 359 34 8 24 338 58 86 56 25 62 115 124 137 140 130 130 134 138 140 140 142 143 141 138 134 127 126 124 121 118 115 106 124 130 120 121 121 122 122 120 120 116
14 91 69 193 280 37 13 355 26 12 0 344 27 94 302 326 97 92 108 114 126 132 135 140 136 137 141 142 141 140 135 132 120 126 127 124 114 117 109 123 137 125 129 126 126 127 125 126 125
102 88 209 239 203 46 5 338 30 359 18 12 328 39 162 32 89 95 102 105 117 128 132 137 138 141 140 140 137 133 129 124 115 109 110 124 113 119 110 116 140 133 132 134 133 131 131 129 119
98 93 340 20 353 54 342 5 351 37 19 347 4 17 355 277 49 100 109 117 113 121 128 128 139 138 133 139 138 126 127 121 123 126 125 117 113 114 113 107 141 138 136 135 134 137 136 130 126
20 56 30 17 21 321 341 11 349 26 49 53 18 23 344 326 59 120 111 115 106 128 141 141 149 135 129 129 130 123 129 130 132 134 136 124 121 112 102 101 122 142 137 134 134 136 125 123 134
52 68 29 24 45 343 360 37 3 44 29 357 356 11 3 13 15 340 121 128 145 164 152 150 156 145 140 141 132 127 135 141 139 142 146 130 117 112 111 108 102 127 132 135 133 128 123 116 115
33 56 343 17 13 355 348 56 15 25 38 14 357 4 10 21 21 25 23 15 15 268 154 170 166 152 153 133 150 136 148 161 142 152 150 132 121 124 118 111 107 118 116 127 125 129 143 146 163
83 36 42 343 336 354 347 42 55 65 151 104 45 30 35 24 24 15 26 355 14 8 14 325 156 160 144 149 163 158 160 167 157 165 154 140 136 134 140 134 139 130 142 140 142 150 162 180 187
65 45 33 360 15 62 36 61 111 89 146 99 68 42 45 34 22 21 19 7 18 8 357 4 22 343 153 162 167 161 177 158 183 151 155 149 143 138 129 157 161 143 146 160 156 165 162 201 180
11 11 11 3 0 68 61 38 53 0 170 75 67 57 44 44 29 14 25 21 10 10 3 345 26 4 310 172 174 166 166 161 155 150 147 152 145 143 134 134 148 131 152 164 161 176 174 188 168
343 347 210 358 336 22 76 22 11 321 78 75 70 53 52 42 38 30 18 18 356 11 360 5 14 20 25 32 1 252 181 164 155 158 151 134 140 147 143 130 138 136 124 164 165 166 167 161 152
339 36 55 328 359 315 75 55 353 349 70 62 63 62 48 39 41 51 26 16 31 2 17 358 14 26 341 44 9 341 267 161 161 161 153 146 138 145 143 139 152 137 124 121 131 129 115 154 188
16 348 341 162 10 10 47 153 7 10 44 47 45 50 62 54 52 61 53 26 18 6 15 12 23 14 342 329 10 325 289 256 168 157 159 161 151 149 150 150 162 137 135 140 152 138 139 155 149
315 345 332 9 333 18 49 104 57 32 47 42 45 33 32 37 50 54 55 75 60 21 27 5 26 359 5 317 6 352 13 349 264 149 152 165 162 158 155 159 172 151 147 158 153 146 144 160 175
291 23 347 319 319 21 340 146 121 83 50 35 38 38 34 24 12 47 37 43 33 32 35 19 9 355 352 12 8 322 353 307 324 232 154 164 166 161 170 163 173 181 167 166 170 158 174 194 125
35 46 340 309 336 339 318 284 145 125 120 94 66 42 32 12 17 35 39 26 37 17 19 8 1 357 356 13 271 256 291 281 271 258 197 184 174 161 177 179 177 188 173 174 173 163 142 191 178
66 75 314 278 316 290 312 322 155 145 119 101 68 67 25 9 21 32 29 23 30 28 16 8 350 343 4 357 335 335 292 232 249 288 216 209 196 186 179 182 180 179 176 195 187 183 171 184 192
83 9 324 315 15 318 89 284 196 193 136 90 78 71 30 7 25 42 35 32 26 19 21 359 1 347 4 359 352 4 350 344 14 330 322 213 215 199 201 195 193 194 187 191 202 191 188 145 175
254 320 278 283 323 18 340 63 295 167 169 124 95 83 26 18 33 44 38 47 27 22 12 346 6 350 1 348 353 350 342 335 320 324 320 319 197 203 197 202 195 200 209 209 183 179 190 195 174
302 309 221 325 73 36 282 107 275 239 183 155 44 23 17 28 17 24 50 44 22 15 19 344 1 360 353 339 349 346 339 334 327 325 317 330 318 202 197 197 205 216 213 210 198 207 209 209 210
9 37 351 7 14 228 316 34 244 202 175 161 179 287 54 32 14 7 14 47 17 10 7 3 357 353 355 350 349 332 322 318 317 309 295 310 317 328 220 198 204 209 214 205 206 207 210 209 208
336 68 136 187 321 289 321 253 276 176 175 208 213 176 99 51 22 8 0 28 57 9 351 348 351 349 346 348 348 339 330 312 314 316 318 309 277 276 277 277 211 216 209 207 203 204 212 202 211
317 40 277 97 50 18 256 275 294 262 275 266 220 108 78 40 20 16 1 356 13 48 27 1 356 353 354 352 347 341 337 334 318 305 293 290 298 286 280 294 213 208 202 198 210 209 220 210 215
86 241 30 356 43 334 304 298 244 286 7 30 46 127 93 48 13 1 1 2 0 9 32 25 4 352 349 347 347 348 343 340 329 313 313 324 311 285 281 280 212 194 207 196 214 203 193 205 195
27 360 358 125 129 152 297 274 218 196 195 295 302 223 176 13 4 358 358 5 9 2 358 6 10 9 1 351 352 357 354 352 351 351 345 342 3 10 35 50 55 59 50 36 77 62 71 81 74
98 228 136 126 278 237 156 274 260 185 183 214 263 271 195 81 26 3 357 4 3 354 355 0 2 358 357 357 12 12 5 2 10 10 6 11 38 40 50 48 69 60 49 57 63 71 78 80 75